Weather History for Duncan, OK

Change the Weather History Date:

Friday, January 18, 2013

  Actual Average (KLAW) Record (KLAW)
Temperature  
Mean Temperature 45 °F -  
Max Temperature 60 °F 50 °F 75 °F (1964)
Min Temperature 30 °F 27 °F 4 °F (1978)
Degree Days  
Heating Degree Days 20    
Moisture  
Dew Point 31 °F    
Average Humidity 66    
Maximum Humidity 93    
Minimum Humidity 31    
Precipitation  
Precipitation 0.00 in - - ()
Sea Level Pressure  
Sea Level Pressure 30.36 in    
Wind  
Wind Speed 5 mph (South)    
Max Wind Speed 15 mph    
Max Gust Speed 21 mph    
Visibility 10 miles    
Events      
Averages and records for this station are not official NWS values.
T = Trace of Precipitation, MM = Missing Value Source: NWS Daily Summary

Daily Weather History Graph

Daily Weather History Graph

Search for Another Location

Airport:

Trip Planner

Search our weather history database for the weather conditions in past years. The results will help you decide how hot, cold, wet, or windy it might be!

Date:

Astronomy

Jan. 18, 2013 Rise Set
Actual Time 7:37 AM CST 5:47 PM CST
Civil Twilight 7:10 AM CST 6:15 PM CST
Nautical Twilight 6:39 AM CST 6:45 PM CST
Astronomical Twilight 6:09 AM CST 7:15 PM CST
Moon 11:37 AM CST (1/18) 12:19 AM CST (1/18)
Length of Visible Light 11h 05m
Length of Day
10h 10m
Waxing Crescent, 47% of the Moon is Illuminated
Jan 18
Waxing Crescent
Jan 18
First Quarter
Jan 26
Full
Feb 3
Last Quarter
Feb 10
New

Hourly Weather History & Observations

Time (CST) Temp. Windchill Dew Point Humidity Pressure Visibility Wind Dir Wind Speed Gust Speed Precip Events Conditions
12:15 AM 32.0 °F - 28.4 °F 87% 30.49 in 10.0 mi Calm Calm - N/A   Clear
12:35 AM 33.8 °F - 30.2 °F 87% 30.49 in 10.0 mi Calm Calm - N/A   Clear
12:55 AM 32.0 °F - 30.2 °F 93% 30.49 in 10.0 mi Calm Calm - N/A   Clear
1:15 AM 33.8 °F - 30.2 °F 87% 30.49 in 10.0 mi Calm Calm - N/A   Clear
1:35 AM 33.8 °F - 30.2 °F 87% 30.49 in 10.0 mi Calm Calm - N/A   Clear
1:55 AM 33.8 °F - 30.2 °F 87% 30.50 in 10.0 mi Calm Calm - N/A   Clear
2:15 AM 32.0 °F - 30.2 °F 93% 30.50 in 10.0 mi Calm Calm - N/A   Clear
2:35 AM 32.0 °F 28.7 °F 30.2 °F 93% 30.49 in 10.0 mi East 3.5 mph - N/A   Clear
2:55 AM 32.0 °F 28.7 °F 30.2 °F 93% 30.49 in 10.0 mi ESE 3.5 mph - N/A   Clear
3:15 AM 32.0 °F - 30.2 °F 93% 30.48 in 10.0 mi Calm Calm - N/A   Clear
3:35 AM 32.0 °F 28.7 °F 28.4 °F 87% 30.48 in 10.0 mi East 3.5 mph - N/A   Clear
3:55 AM 32.0 °F 28.7 °F 30.2 °F 93% 30.47 in 10.0 mi ESE 3.5 mph - N/A   Clear
4:15 AM 32.0 °F - 28.4 °F 87% 30.46 in 10.0 mi Calm Calm - N/A   Clear
4:35 AM 30.2 °F - 28.4 °F 93% 30.46 in 10.0 mi Calm Calm - N/A   Clear
4:55 AM 32.0 °F 28.7 °F 30.2 °F 93% 30.45 in 10.0 mi SE 3.5 mph - N/A   Clear
5:15 AM 30.2 °F 26.7 °F 28.4 °F 93% 30.44 in 10.0 mi SE 3.5 mph - N/A   Clear
5:35 AM 32.0 °F 28.7 °F 28.4 °F 87% 30.44 in 10.0 mi SE 3.5 mph - N/A   Clear
5:55 AM 32.0 °F 27.5 °F 28.4 °F 87% 30.43 in 10.0 mi SE 4.6 mph - N/A   Clear
6:15 AM 32.0 °F 27.5 °F 30.2 °F 93% 30.43 in 10.0 mi SE 4.6 mph - N/A   Clear
6:35 AM 32.0 °F 27.5 °F 30.2 °F 93% 30.43 in 10.0 mi SE 4.6 mph - N/A   Clear
6:55 AM 32.0 °F 27.5 °F 30.2 °F 93% 30.43 in 10.0 mi SE 4.6 mph - N/A   Clear
7:15 AM 32.0 °F 27.5 °F 28.4 °F 87% 30.43 in 10.0 mi SE 4.6 mph - N/A   Clear
7:35 AM 32.0 °F 28.7 °F 30.2 °F 93% 30.43 in 10.0 mi SE 3.5 mph - N/A   Clear
7:55 AM 32.0 °F 27.5 °F 30.2 °F 93% 30.43 in 10.0 mi SSE 4.6 mph - N/A   Clear
8:15 AM 32.0 °F 27.5 °F 30.2 °F 93% 30.43 in 10.0 mi SSE 4.6 mph - N/A   Clear
8:35 AM 33.8 °F 30.8 °F 32.0 °F 93% 30.43 in 10.0 mi South 3.5 mph - N/A   Clear
8:55 AM 35.6 °F 30.7 °F 32.0 °F 87% 30.44 in 10.0 mi South 5.8 mph - N/A   Clear
9:15 AM 37.4 °F 30.8 °F 33.8 °F 87% 30.44 in 10.0 mi South 9.2 mph - N/A   Clear
9:35 AM 41.0 °F 35.2 °F 33.8 °F 76% 30.45 in 10.0 mi South 9.2 mph - N/A   Clear
9:55 AM 42.8 °F 37.0 °F 33.8 °F 70% 30.45 in 10.0 mi South 10.4 mph - N/A   Clear
10:15 AM 44.6 °F 38.4 °F 33.8 °F 66% 30.45 in 10.0 mi South 12.7 mph - N/A   Clear
10:35 AM 48.2 °F - 33.8 °F 58% 30.45 in 10.0 mi South 13.8 mph - N/A   Clear
10:55 AM 50.0 °F - 33.8 °F 54% 30.44 in 10.0 mi South 11.5 mph - N/A   Clear
11:15 AM 51.8 °F - 33.8 °F 50% 30.43 in 10.0 mi South 12.7 mph - N/A   Clear
11:35 AM 53.6 °F - 33.8 °F 47% 30.42 in 10.0 mi South 15.0 mph - N/A   Clear
11:55 AM 53.6 °F - 32.0 °F 44% 30.41 in 10.0 mi South 12.7 mph 20.7 mph N/A   Clear
12:15 PM 53.6 °F - 32.0 °F 44% 30.39 in 10.0 mi South 12.7 mph 18.4 mph N/A   Clear
12:35 PM 55.4 °F - 32.0 °F 41% 30.38 in 10.0 mi South 13.8 mph - N/A   Clear
12:55 PM 55.4 °F - 32.0 °F 41% 30.36 in 10.0 mi SSW 13.8 mph 17.3 mph N/A   Clear
1:15 PM 57.2 °F - 32.0 °F 38% 30.35 in 10.0 mi SSW 12.7 mph - N/A   Clear
1:35 PM 59.0 °F - 32.0 °F 36% 30.34 in 10.0 mi SSW 11.5 mph 18.4 mph N/A   Clear
1:55 PM 59.0 °F - 32.0 °F 36% 30.32 in 10.0 mi SSW 13.8 mph - N/A   Clear
2:15 PM 59.0 °F - 32.0 °F 36% 30.31 in 10.0 mi SSW 12.7 mph - N/A   Clear
2:35 PM 60.8 °F - 32.0 °F 34% 30.31 in 10.0 mi SSW 12.7 mph - N/A   Clear
2:55 PM 60.8 °F - 32.0 °F 34% 30.30 in 10.0 mi SSW 15.0 mph 18.4 mph N/A   Clear
3:15 PM 60.8 °F - 32.0 °F 34% 30.29 in 10.0 mi SSW 12.7 mph - N/A   Clear
3:35 PM 60.8 °F - 30.2 °F 31% 30.27 in 10.0 mi SSW 10.4 mph 18.4 mph N/A   Clear
3:55 PM 60.8 °F - 32.0 °F 34% 30.26 in 10.0 mi South 12.7 mph - N/A   Clear
4:15 PM 60.8 °F - 32.0 °F 34% 30.26 in 10.0 mi SSW 12.7 mph - N/A   Clear
4:35 PM 60.8 °F - 32.0 °F 34% 30.26 in 10.0 mi South 11.5 mph 18.4 mph N/A   Clear
4:55 PM 60.8 °F - 32.0 °F 34% 30.25 in 10.0 mi SSW 11.5 mph - N/A   Clear
5:15 PM 59.0 °F - 32.0 °F 36% 30.25 in 10.0 mi South 13.8 mph - N/A   Clear
5:35 PM 55.4 °F - 32.0 °F 41% 30.25 in 10.0 mi South 10.4 mph - N/A   Clear
5:55 PM 53.6 °F - 32.0 °F 44% 30.24 in 10.0 mi South 9.2 mph - N/A   Clear
6:15 PM 51.8 °F - 32.0 °F 47% 30.24 in 10.0 mi SSE 9.2 mph - N/A   Clear
6:35 PM 51.8 °F - 32.0 °F 47% 30.25 in 10.0 mi South 9.2 mph - N/A   Clear
6:55 PM 48.2 °F - 32.0 °F 54% 30.25 in 10.0 mi South 5.8 mph - N/A   Clear
7:15 PM 46.4 °F 42.4 °F 32.0 °F 57% 30.24 in 10.0 mi South 8.1 mph - N/A   Clear
7:35 PM 46.4 °F 41.9 °F 32.0 °F 57% 30.24 in 10.0 mi South 9.2 mph - N/A   Clear
7:55 PM 46.4 °F 41.9 °F 32.0 °F 57% 30.24 in 10.0 mi South 9.2 mph - N/A   Clear
8:15 PM 44.6 °F 39.7 °F 32.0 °F 61% 30.24 in 10.0 mi South 9.2 mph - N/A   Clear
8:35 PM 42.8 °F 38.0 °F 32.0 °F 66% 30.24 in 10.0 mi South 8.1 mph - N/A   Clear
8:55 PM 42.8 °F 38.0 °F 32.0 °F 66% 30.23 in 10.0 mi South 8.1 mph - N/A   Clear
9:35 PM 44.6 °F 38.4 °F 32.0 °F 61% 30.22 in 10.0 mi South 12.7 mph - N/A   Clear
9:55 PM 44.6 °F 38.8 °F 33.8 °F 66% 30.22 in 10.0 mi South 11.5 mph - N/A   Clear
10:15 PM 44.6 °F 39.7 °F 33.8 °F 66% 30.22 in 10.0 mi South 9.2 mph - N/A   Clear
10:35 PM 44.6 °F 39.2 °F 33.8 °F 66% 30.21 in 10.0 mi South 10.4 mph - N/A   Clear
10:55 PM 44.6 °F 40.2 °F 33.8 °F 66% 30.21 in 10.0 mi South 8.1 mph - N/A   Clear
11:15 PM 42.8 °F 39.3 °F 33.8 °F 70% 30.21 in 10.0 mi SSE 5.8 mph - N/A   Clear
11:35 PM 41.0 °F 38.0 °F 32.0 °F 70% 30.21 in 10.0 mi SSE 4.6 mph - N/A   Clear
11:55 PM 41.0 °F 37.1 °F 33.8 °F 76% 30.20 in 10.0 mi SSE 5.8 mph - N/A   Clear